Starlink 34853

operational
NORAD ID: 65892 Int'l Des: 2025-224 Owner: SPXS Country: US Constellation: starlink
LEOCIRCULAR

Starlink 34853について

説明を読み込み中...

リアルタイム位置

3D地球を読み込み中...

次回通過

高度履歴

Altitude vs Time

uPlot chart will show altitude changes over time

軌道要素

1 65892U 25224L 26062.14903684 .00016638 00000-0 57262-3 0 9995
2 65892 53.1605 41.6788 0001114 85.3765 274.7363 15.30200391 23806
Epoch: Mar 3, 2026 • Age: 12 hours

現在のステータス

高度 480.9 km
速度 7.63 km/s
衛星直下点 52.92°N, 160.96°E
打ち上げ日 Oct 7, 2025
運用期間 0.4 years
タイプ internet

技術仕様

分類 Payload
質量 575.00 kg
乾燥質量 530.00 kg
総質量 575.00 kg
長さ 0.30 m
直径 4.10 m
スパン 29.00 m
形状 Box + pan
製造者 SPXS
バスタイプ Starlink V2MO
フェーズステータス In Orbit
所有者/国 SPXS/US

大規模コンステレーション

Loading constellations...